Location: Bannatyne
(13.0833°N, 59.5333°W)
Time: 14:14:41
(UTC+00:00)

ISS - Visible Passes

Search period start: 07 December 2019 00:00
Search period end: 17 December 2019 00:00
Orbit: 411 x 421 km, 51.6° (Epoch: 07 December)

Date Brightness Start Highest point End Pass type
(mag) Time Alt. Az. Time Alt. Az. Time Alt. Az.
11 Dec -1.8 22:59:21 10° NNW 23:00:30 20° NNW 23:00:30 20° NNW visible
12 Dec -2.7 22:11:21 10° N 22:14:08 24° NE 22:16:57 10° ESE visible
12 Dec -0.3 23:49:26 10° WSW 23:50:07 11° WSW 23:50:07 11° WSW visible
13 Dec -1.4 22:59:23 10° WNW 23:02:12 25° SW 23:05:01 10° S visible
14 Dec -3.2 22:10:25 10° NW 22:13:44 62° SW 22:17:02 10° SSE visible
16 Dec -0.2 22:11:32 10° W 22:13:11 13° SW 22:14:49 10° SSW visible
